Regional Weather Roundup
Issued by NWS Cleveland, OH

Home | Current Version | Previous Version | Text Only | Print | Product List | Glossary Off
Versions: 1 2 3 4 5 6 7 8 9 10 11 12 13 14 15 16 17 18 19 20 21 22 23 24 25 26 27 28 29 30 31 32 33 34 35 36 37 38 39 40 41 42 43 44 45 46 47 48 49 50

000
ASUS41 KCLE 230102
RWRCLE
OHIO REGIONAL WEATHER ROUNDUP
NATIONAL WEATHER SERVICE CLEVELAND, OH
900 PM EDT WED OCT 22 2014

NOTE: "FAIR" INDICATES FEW OR NO CLOUDS BELOW 12,000 FEET WITH NO
SIGNIFICANT WEATHER AND/OR OBSTRUCTIONS TO VISIBILITY.

OHZ001>008-015>018-024>027-034-035-043-044-230200-
   NORTHWEST OHIO

CITY           SKY/WX    TMP DP  RH WIND       PRES   REMARKS
DEFIANCE       CLEAR     38  36  92 CALM      30.29F
FINDLAY        CLOUDY    46  40  79 NW5       30.27S
TOLEDO EXPRESS CLOUDY    48  40  73 NW5       30.28R
TOLEDO EXEC    CLOUDY    50  41  71 W3        30.28S
LIMA           CLEAR     44  39  82 NW3       30.28S
$$

OHZ009>014-019>023-028>033-038-089-230200-
   NORTHEAST OHIO

CITY           SKY/WX    TMP DP  RH WIND       PRES   REMARKS
CLE-HOPKINS    CLOUDY    51  44  77 N16       30.26S
CLE-LAKEFRONT  CLOUDY    53  45  74 N17       30.23S
CUY CO. ARPT   CLOUDY    50  46  87 N12       30.24R
LORAIN-ELYRIA  CLOUDY    50  43  77 N8        30.25F
ASHTABULA      CLOUDY    43  41  93 CALM      30.23S
AKRON-CANTON   MOCLDY    48  41  76 N6        30.22S
WOOSTER        CLOUDY    49  42  77 N5        30.24S
MANSFIELD      CLOUDY    47  43  86 NW3       30.25S
YOUNGSTOWN     PTCLDY    42  39  89 NW3       30.21S
$$

OHZ042-051>053-060>062-070>072-077>081-230200-
  SOUTHWEST OHIO

CITY           SKY/WX    TMP DP  RH WIND       PRES   REMARKS
CINC-COVINGTON MOCLDY    49  39  68 NE5       30.27R
CINC-LUNKEN    CLOUDY    50  41  71 NE5       30.29R
HAMILTON       CLOUDY    50  41  71 N6        30.29R
DAYTON         CLOUDY    48  40  73 NE7       30.30R
WRIGHT-PAT AFB CLOUDY    48  40  74 NE10      30.29R
DAYTON GENERAL CLOUDY    48  40  73 NE9       30.28R
WILMINGTON     CLOUDY    47  39  74 N7        30.27S
$$

OHZ036-037-039>041-045>050-054>059-063>069-073>076-082>088-230200-
  CENTRAL AND SOUTHEAST OHIO

CITY           SKY/WX    TMP DP  RH WIND       PRES   REMARKS
COLUMBUS       CLOUDY    49  41  74 N7        30.25S
OSU AIRPORT    CLOUDY    49  41  74 N5        30.26S
BOLTON FIELD   CLOUDY    48  42  80 NW5       30.26S
RICKENBACK AFB NOT AVBL
NEWARK         CLOUDY    49  40  71 NW7       30.25S
MARION         CLOUDY    49  41  74 N6        30.26S
LANCASTER      CLOUDY    49  42  77 CALM      30.26R
ZANESVILLE     CLOUDY    48  40  73 NW7       30.23R
NEW PHILLY     MOCLDY    48  42  80 NW3       30.23R
$$



USA.gov is the U.S. government's official web portal to all federal, state and local government web resources and services.